South Paris, Maine, United States (04281)
Lat: 44.22N, Lon: 70.51W
Wx Zone: MEZ012
Local Info
Past Weather Observations for Friday, July 25, 2014

NOTE: This archive is for the closest National Weather Service station to South Paris. Information may differ from the station used for current weather conditions.

Click here for Long-term Archive

Time Weather Temperature Dewpoint Humidity Pressure Winds Precip Visibility
23:55
Clear
59°F / 15°C 55°F / 13°C 88% 29.95 in
(1014 mb)
SSE 3.5 mph
(SSE 6 kph)
- 8SM
23:35
Clear
59°F / 15°C 55°F / 13°C 88% 29.95 in
(1014 mb)
SSE 3.5 mph
(SSE 6 kph)
- 7SM
23:15
Clear
57°F / 14°C 54°F / 12°C 88% 29.95 in
(1014 mb)
Calm - 5SM
22:55
Clear
59°F / 15°C 55°F / 13°C 88% 29.95 in
(1014 mb)
S 3.5 mph
(S 6 kph)
- 5SM
22:35
Clear
61°F / 16°C 55°F / 13°C 83% 29.95 in
(1014 mb)
Calm - 7SM
22:15
Clear
61°F / 16°C 55°F / 13°C 83% 29.95 in
(1014 mb)
Calm - 6SM
21:55
Clear
61°F / 16°C 55°F / 13°C 83% 29.95 in
(1014 mb)
SSE 3.5 mph
(SSE 6 kph)
- 8SM
21:35
Clear
63°F / 17°C 57°F / 14°C 83% 29.95 in
(1014 mb)
Calm - 10SM
21:15
Clear
63°F / 17°C 57°F / 14°C 83% 29.95 in
(1014 mb)
Calm - 8SM
20:55
Clear
63°F / 17°C 57°F / 14°C 83% 29.95 in
(1014 mb)
Calm - 7SM
20:35
Clear
64°F / 18°C 57°F / 14°C 78% 29.95 in
(1014 mb)
Calm - 10SM
20:15
Clear
64°F / 18°C 57°F / 14°C 78% 29.95 in
(1014 mb)
SE 4.6 mph
(SE 7 kph)
- 10SM
19:55
Clear
68°F / 20°C 59°F / 15°C 73% 29.95 in
(1014 mb)
Calm - 10SM
19:35
Clear
66°F / 19°C 59°F / 15°C 78% 29.92 in
(1013 mb)
Calm - 10SM
19:15
Clear
72°F / 22°C 57°F / 14°C 61% 29.92 in
(1013 mb)
Calm - 9SM
18:55
Clear
72°F / 22°C 57°F / 14°C 61% 29.92 in
(1013 mb)
S 3.5 mph
(S 6 kph)
- 10SM
18:35
Clear
75°F / 24°C 55°F / 13°C 50% 29.92 in
(1013 mb)
Calm - 10SM
18:15
Clear
75°F / 24°C 55°F / 13°C 50% 29.92 in
(1013 mb)
W 3.5 mph
(W 6 kph)
- 10SM
17:55
Clear
75°F / 24°C 55°F / 13°C 50% 29.92 in
(1013 mb)
NW 4.6 mph
(NW 7 kph)
- 10SM
17:35
Clear
77°F / 25°C 57°F / 14°C 51% 29.89 in
(1012 mb)
WNW 4.6 mph
(WNW 7 kph)
- 10SM
17:15
Clear
79°F / 26°C 55°F / 13°C 45% 29.89 in
(1012 mb)
W 4.6 mph
(W 7 kph)
- 10SM
16:55
Clear
79°F / 26°C 55°F / 13°C 45% 29.89 in
(1012 mb)
NW 8.1 mph
(NW 13 kph)
- 10SM
16:35
Clear
79°F / 26°C 55°F / 13°C 45% 29.89 in
(1012 mb)
W 10.4 mph
(W 17 kph)
- 10SM
16:15
Partly Cloudy
79°F / 26°C 55°F / 13°C 45% 29.89 in
(1012 mb)
WNW 5.8 mph
(WNW 9 kph)
- 10SM
15:55
Clear
81°F / 27°C 55°F / 13°C 42% 29.89 in
(1012 mb)
W 9.2 mph
(W 15 kph)
- 10SM
15:35
Clear
81°F / 27°C 55°F / 13°C 42% 29.89 in
(1012 mb)
WNW 8.1 mph
(WNW 13 kph)
- 10SM
15:15
Partly Cloudy
81°F / 27°C 55°F / 13°C 42% 29.89 in
(1012 mb)
WNW 9.2 mph
(WNW 15 kph)
- 10SM
14:55
Mostly Cloudy
81°F / 27°C 55°F / 13°C 42% 29.92 in
(1013 mb)
W 12.7 mph
(W 20 kph)
- 10SM
14:35
Partly Cloudy
81°F / 27°C 54°F / 12°C 39% 29.92 in
(1013 mb)
W 9.2 mph
(W 15 kph)
- 10SM
14:15
Partly Cloudy
79°F / 26°C 55°F / 13°C 45% 29.92 in
(1013 mb)
NW 8.1 mph
(NW 13 kph)
- 10SM
13:55
Partly Cloudy
79°F / 26°C 55°F / 13°C 45% 29.89 in
(1012 mb)
SSW 8.1 mph
(SSW 13 kph)
- 10SM
13:35
Partly Cloudy
79°F / 26°C 57°F / 14°C 48% 29.92 in
(1013 mb)
NW 8.1 mph
(NW 13 kph)
- 10SM
13:15
Partly Cloudy
79°F / 26°C 55°F / 13°C 45% 29.92 in
(1013 mb)
NW 8.1 mph
(NW 13 kph)
- 10SM
12:55
Partly Cloudy
79°F / 26°C 55°F / 13°C 45% 29.92 in
(1013 mb)
NW 6.9 mph
(NW 11 kph)
- 10SM
12:35
Partly Cloudy
77°F / 25°C 55°F / 13°C 47% 29.92 in
(1013 mb)
W 6.9 mph
(W 11 kph)
- 10SM
12:15
Partly Cloudy
75°F / 24°C 55°F / 13°C 50% 29.92 in
(1013 mb)
SSW 5.8 mph
(SSW 9 kph)
- 10SM
11:55
Partly Cloudy
75°F / 24°C 54°F / 12°C 47% 29.92 in
(1013 mb)
NW 8.1 mph
(NW 13 kph)
- 10SM
11:35
Partly Cloudy
75°F / 24°C 55°F / 13°C 50% 29.95 in
(1014 mb)
NW 10.4 mph
(NW 17 kph)
- 10SM
11:15
Clear
75°F / 24°C 54°F / 12°C 47% 29.95 in
(1014 mb)
NW 8.1 mph
(NW 13 kph)
- 10SM
10:55
Clear
75°F / 24°C 54°F / 12°C 47% 29.95 in
(1014 mb)
NW 11.5 mph
(NW 19 kph)
- 10SM
10:35
Partly Cloudy
73°F / 23°C 55°F / 13°C 53% 29.95 in
(1014 mb)
NW 6.9 mph
(NW 11 kph)
- 10SM
10:15
Clear
73°F / 23°C 57°F / 14°C 57% 29.95 in
(1014 mb)
NNW 9.2 mph
(NNW 15 kph)
- 10SM
09:55
Clear
72°F / 22°C 57°F / 14°C 61% 29.95 in
(1014 mb)
WNW 6.9 mph
(WNW 11 kph)
- 10SM
09:35
Clear
72°F / 22°C 55°F / 13°C 57% 29.95 in
(1014 mb)
NW 5.8 mph
(NW 9 kph)
- 10SM
09:15
Clear
70°F / 21°C 55°F / 13°C 60% 29.95 in
(1014 mb)
NW 8.1 mph
(NW 13 kph)
- 10SM
08:55
Clear
70°F / 21°C 55°F / 13°C 60% 29.95 in
(1014 mb)
NW 9.2 mph
(NW 15 kph)
- 10SM
08:35
Clear
68°F / 20°C 54°F / 12°C 60% 29.95 in
(1014 mb)
WNW 8.1 mph
(WNW 13 kph)
- 10SM
08:15
Clear
66°F / 19°C 54°F / 12°C 64% 29.95 in
(1014 mb)
NW 5.8 mph
(NW 9 kph)
- 10SM
07:55
Clear
66°F / 19°C 54°F / 12°C 64% 29.95 in
(1014 mb)
NW 5.8 mph
(NW 9 kph)
- 10SM
07:35
Clear
63°F / 17°C 54°F / 12°C 73% 29.95 in
(1014 mb)
NNW 3.5 mph
(NNW 6 kph)
- 10SM
07:15
Clear
63°F / 17°C 52°F / 11°C 68% 29.95 in
(1014 mb)
NNW 4.6 mph
(NNW 7 kph)
- 10SM
06:55
Clear
61°F / 16°C 52°F / 11°C 72% 29.95 in
(1014 mb)
NW 3.5 mph
(NW 6 kph)
- 10SM
06:35
Clear
57°F / 14°C 52°F / 11°C 82% 29.95 in
(1014 mb)
NNW 5.8 mph
(NNW 9 kph)
- 10SM
06:15
Clear
55°F / 13°C 50°F / 10°C 82% 29.95 in
(1014 mb)
NW 3.5 mph
(NW 6 kph)
- 10SM
05:55
Clear
54°F / 12°C 50°F / 10°C 88% 29.95 in
(1014 mb)
Calm - 10SM
05:35
Clear
54°F / 12°C 48°F / 9°C 82% 29.95 in
(1014 mb)
NNE 3.5 mph
(NNE 6 kph)
- 10SM
05:15
Clear
52°F / 11°C 48°F / 9°C 88% 29.95 in
(1014 mb)
Calm - 10SM
04:55
Clear
52°F / 11°C 46°F / 8°C 82% 29.95 in
(1014 mb)
Calm - 10SM
04:35
Clear
52°F / 11°C 46°F / 8°C 82% 29.95 in
(1014 mb)
Calm - 10SM
04:15
Clear
50°F / 10°C 46°F / 8°C 88% 29.92 in
(1013 mb)
Calm - 10SM
03:55
Clear
52°F / 11°C 46°F / 8°C 82% 29.92 in
(1013 mb)
Calm - 10SM
03:35
Clear
52°F / 11°C 48°F / 9°C 88% 29.92 in
(1013 mb)
Calm - 10SM
03:15
Clear
52°F / 11°C 48°F / 9°C 88% 29.92 in
(1013 mb)
N 3.5 mph
(N 6 kph)
- 10SM
02:55
Clear
52°F / 11°C 46°F / 8°C 82% 29.92 in
(1013 mb)
Calm - 10SM
02:35
Clear
50°F / 10°C 46°F / 8°C 88% 29.92 in
(1013 mb)
Calm - 10SM
02:15
Clear
50°F / 10°C 46°F / 8°C 88% 29.92 in
(1013 mb)
Calm - 10SM
01:55
Clear
52°F / 11°C 46°F / 8°C 82% 29.92 in
(1013 mb)
Calm - 10SM
01:35
Clear
54°F / 12°C 48°F / 9°C 82% 29.92 in
(1013 mb)
Calm - 10SM
01:15
Clear
52°F / 11°C 48°F / 9°C 88% 29.92 in
(1013 mb)
Calm - 10SM
00:55
Clear
54°F / 12°C 48°F / 9°C 82% 29.92 in
(1013 mb)
Calm - 10SM
00:35
Clear
54°F / 12°C 48°F / 9°C 82% 29.92 in
(1013 mb)
Calm - 10SM
00:15
Clear
54°F / 12°C 48°F / 9°C 82% 29.92 in
(1013 mb)
Calm - 10SM
Time Weather Temperature Dewpoint Humidity Pressure Winds Precip Visibility


Weather for websites

WeatherForYou.com, LLC is not responsible for any damages or problems caused by this service. Current weather conditions are obtained from the closest station including government and personal stations which may have varying degrees of accuracy. Weather forecasts are derived from the NOAA NDFD. Like all things, this site belongs to Jesus Christ... He just trusts me to maintain it. If you have any questions or comments email webmaster@weatherforyou.com

Copyright © 2014, WeatherForYou.com LLC. All rights reserved.